Weather History for KMLU - December, 2014

Change the Weather History Date:

Wednesday, December 31, 2014

  Actual Average Record
Temperature  
Mean Temperature 38 °F 46 °F  
Max Temperature 47 °F 57 °F 80 °F (1951)
Min Temperature 28 °F 36 °F 12 °F (1983)
Degree Days  
Heating Degree Days 27 19  
Month to date heating degree days 463 531  
Since 1 July heating degree days 937 902  
Cooling Degree Days 0 0  
Month to date cooling degree days 1 7  
Year to date cooling degree days 2284 2515  
Moisture  
Dew Point 28 °F    
Average Humidity 71    
Maximum Humidity 85    
Minimum Humidity 57    
Precipitation  
Precipitation 0.00 in 0.16 in 1.76 in (1936)
Month to date precipitation 4.48 5.29  
Year to date precipitation 52.09 54.02  
Snow  
Snow 0.00 in - - ()
Month to date snowfall 0.0  
Since 1 July snowfall 0.0  
Snow Depth 0.00 in    
Sea Level Pressure  
Sea Level Pressure 30.51 in    
Wind  
Wind Speed 9 mph (NNE)    
Max Wind Speed 18 mph    
Max Gust Speed 21 mph    
Visibility 10 miles    
Events      
T = Trace of Precipitation, MM = Missing Value Source: NWS Daily Summary

Daily Weather History Graph

Daily Weather History Graph

Search for Another Location

Airport or City:

Trip Planner

Search our weather history database for the weather conditions in past years. The results will help you decide how hot, cold, wet, or windy it might be!

Date:

Astronomy

Dec. 31, 2014 Rise Set
Actual Time 7:09 AM CST 5:12 PM CST
Civil Twilight 6:42 AM CST 5:39 PM CST
Nautical Twilight 6:11 AM CST 6:10 PM CST
Astronomical Twilight 5:41 AM CST 6:40 PM CST
Moon 1:56 PM CST (12/31) 2:45 AM CST (12/31)
Length of Visible Light 10h 57m
Length of Day
10h 03m
Waxing Gibbous, 80% of the Moon is Illuminated
Dec 31
Waxing Gibbous
Jan 4
Full
Jan 13
Last Quarter
Jan 20
New
Jan 26
First Quarter

Hourly Weather History & Observations

Time (CST) Temp. Windchill Dew Point Humidity Pressure Visibility Wind Dir Wind Speed Gust Speed Precip Events Conditions
12:53 AM 34.0 °F 25.0 °F 28.0 °F 79% 30.51 in - NNE 12.7 mph - N/A   Clear
1:53 AM 33.1 °F 25.5 °F 27.0 °F 78% 30.53 in - NNE 9.2 mph - N/A   Clear
2:53 AM 32.0 °F 25.6 °F 26.1 °F 79% 30.55 in - North 6.9 mph - N/A   Clear
3:53 AM 30.9 °F 22.8 °F 26.1 °F 82% 30.54 in - North 9.2 mph - N/A   Clear
4:53 AM 30.0 °F 21.7 °F 25.0 °F 82% 30.55 in - NNE 9.2 mph - N/A   Clear
5:53 AM 28.9 °F 21.1 °F 25.0 °F 85% 30.56 in 10.0 mi NNE 8.1 mph - N/A   Clear
6:53 AM 28.9 °F 21.1 °F 24.1 °F 82% 30.55 in - NE 8.1 mph - N/A   Clear
7:53 AM 30.9 °F 24.3 °F 26.1 °F 82% 30.57 in 10.0 mi NNE 6.9 mph - N/A   Clear
8:53 AM 34.0 °F 26.6 °F 26.1 °F 73% 30.59 in 10.0 mi NNE 9.2 mph - N/A   Clear
9:53 AM 37.0 °F 29.8 °F 28.0 °F 70% 30.59 in 10.0 mi ENE 10.4 mph - N/A   Scattered Clouds
10:53 AM 39.9 °F 32.9 °F 28.0 °F 63% 30.57 in 10.0 mi North 11.5 mph - N/A   Scattered Clouds
11:53 AM 41.0 °F 34.3 °F 28.9 °F 62% 30.53 in 10.0 mi East 11.5 mph - N/A   Clear
12:53 PM 42.1 °F 34.9 °F 30.0 °F 62% 30.48 in 10.0 mi NE 13.8 mph - N/A   Clear
1:53 PM 45.0 °F 41.2 °F 30.9 °F 58% 30.45 in 10.0 mi NE 6.9 mph - N/A   Clear
2:53 PM 46.0 °F 41.9 °F 32.0 °F 58% 30.44 in 10.0 mi NE 8.1 mph - N/A   Clear
3:53 PM 45.0 °F 40.1 °F 32.0 °F 60% 30.44 in 10.0 mi ENE 9.2 mph - N/A   Partly Cloudy
4:53 PM 43.0 °F 37.7 °F 32.0 °F 65% 30.45 in 10.0 mi NE 9.2 mph - N/A   Overcast
5:53 PM 43.0 °F 37.2 °F 28.9 °F 58% 30.47 in 10.0 mi NNE 10.4 mph - N/A   Overcast
6:53 PM 39.9 °F 34.5 °F 28.0 °F 63% 30.46 in 10.0 mi NNE 8.1 mph - N/A   Mostly Cloudy
7:53 PM 37.9 °F 32.1 °F 28.0 °F 68% 30.48 in 10.0 mi NNE 8.1 mph - N/A   Scattered Clouds
8:53 PM 36.0 °F 29.6 °F 27.0 °F 70% 30.48 in 10.0 mi NE 8.1 mph - N/A   Clear
9:53 PM 37.0 °F 34.5 °F 27.0 °F 67% 30.50 in 10.0 mi North 3.5 mph - N/A   Mostly Cloudy
10:53 PM 35.1 °F 29.3 °F 27.0 °F 72% 30.46 in - NNE 6.9 mph - N/A   Mostly Cloudy
11:53 PM 33.1 °F 27.7 °F 27.0 °F 78% 30.44 in - NE 5.8 mph - N/A   Clear